Time,TemperatureF,DewpointF,PressureIn,WindDirection,WindDirectionDegrees,WindSpeedMPH,WindSpeedGustMPH,Humidity,HourlyPrecipIn,Conditions,Clouds,dailyrainin,SoftwareType,DateUTC
2013-07-01 00:01:00,70.6,63.0,29.87,NE,42,4.0,4.0,77,0.00,,,0.00,WeatherCatV1.15B25,2013-07-01 04:01:00,
2013-07-01 00:02:00,70.6,63.0,29.87,NE,42,0.0,4.0,77,0.00,,,0.00,WeatherCatV1.15B25,2013-07-01 04:02:00,
2013-07-01 00:05:00,70.6,63.0,29.87,NNE,32,0.0,2.0,77,0.00,,,0.00,WeatherCatV1.15B25,2013-07-01 04:05:00,
2013-07-01 00:07:00,70.6,63.0,29.87,NNE,32,0.0,0.0,77,0.00,,,0.00,WeatherCatV1.15B25,2013-07-01 04:07:00,
2013-07-01 00:12:00,70.6,63.0,29.86,NNW,333,5.0,6.0,77,0.00,,,0.00,WeatherCatV1.15B25,2013-07-01 04:12:00,
2013-07-01 00:17:00,70.7,63.1,29.86,NNE,15,0.0,3.0,77,0.00,,,0.00,WeatherCatV1.15B25,2013-07-01 04:17:00,
2013-07-01 00:22:00,70.7,63.1,29.86,NNE,30,0.0,6.0,77,0.00,,,0.00,WeatherCatV1.15B25,2013-07-01 04:22:00,
2013-07-01 00:27:00,70.7,63.1,29.86,NNW,342,0.0,1.0,77,0.00,,,0.00,WeatherCatV1.15B25,2013-07-01 04:27:00,
2013-07-01 00:32:00,70.5,62.9,29.86,NNE,32,1.0,3.0,77,0.00,,,0.00,WeatherCatV1.15B25,2013-07-01 04:32:00,
2013-07-01 00:37:00,70.4,62.8,29.86,NNE,26,0.0,0.0,77,0.00,,,0.00,WeatherCatV1.15B25,2013-07-01 04:37:00,
2013-07-01 00:42:00,70.3,63.1,29.86,North,9,0.0,1.0,78,0.00,,,0.00,WeatherCatV1.15B25,2013-07-01 04:42:00,
2013-07-01 00:47:00,70.3,63.1,29.86,North,11,1.0,3.0,78,0.00,,,0.00,WeatherCatV1.15B25,2013-07-01 04:47:00,
2013-07-01 00:52:00,70.3,63.1,29.86,NE,48,2.0,3.0,78,0.00,,,0.00,WeatherCatV1.15B25,2013-07-01 04:52:00,
2013-07-01 00:57:00,70.3,63.5,29.86,NNE,25,1.0,3.0,79,0.00,,,0.00,WeatherCatV1.15B25,2013-07-01 04:57:00,
2013-07-01 01:02:00,70.4,63.6,29.86,North,355,0.0,1.0,79,0.00,,,0.00,WeatherCatV1.15B25,2013-07-01 05:02:00,
2013-07-01 01:07:00,70.4,63.9,29.86,North,5,0.0,5.0,80,0.00,,,0.00,WeatherCatV1.15B25,2013-07-01 05:07:00,
2013-07-01 01:12:00,70.5,64.0,29.86,North,0,0.0,7.0,80,0.00,,,0.00,WeatherCatV1.15B25,2013-07-01 05:12:00,
2013-07-01 01:17:00,70.4,63.9,29.86,NNE,19,2.0,4.0,80,0.00,,,0.00,WeatherCatV1.15B25,2013-07-01 05:17:00,
2013-07-01 01:22:00,70.4,63.9,29.86,North,350,3.0,5.0,80,0.00,,,0.00,WeatherCatV1.15B25,2013-07-01 05:22:00,
2013-07-01 01:27:00,70.4,63.9,29.86,NNE,13,2.0,7.0,80,0.00,,,0.00,WeatherCatV1.15B25,2013-07-01 05:27:00,
2013-07-01 01:32:00,70.4,63.9,29.85,NNW,343,0.0,3.0,80,0.00,,,0.00,WeatherCatV1.15B25,2013-07-01 05:32:00,
2013-07-01 01:37:00,70.3,63.8,29.86,North,355,1.0,5.0,80,0.00,,,0.00,WeatherCatV1.15B25,2013-07-01 05:37:00,
2013-07-01 01:43:00,70.3,63.8,29.86,North,0,2.0,9.0,80,0.00,,,0.00,WeatherCatV1.15B25,2013-07-01 05:43:00,
2013-07-01 01:48:00,70.4,63.9,29.86,North,355,2.0,4.0,80,0.00,,,0.00,WeatherCatV1.15B25,2013-07-01 05:48:00,
2013-07-01 01:53:00,70.3,63.8,29.85,NE,35,5.0,9.0,80,0.00,,,0.00,WeatherCatV1.15B25,2013-07-01 05:53:00,
2013-07-01 01:58:00,70.3,63.8,29.85,NNW,336,5.0,5.0,80,0.00,,,0.00,WeatherCatV1.15B25,2013-07-01 05:58:00,
2013-07-01 02:03:00,70.3,63.8,29.85,North,350,2.0,3.0,80,0.00,,,0.00,WeatherCatV1.15B25,2013-07-01 06:03:00,
2013-07-01 02:08:00,70.2,64.1,29.85,NE,37,2.0,9.0,81,0.00,,,0.00,WeatherCatV1.15B25,2013-07-01 06:08:00,
2013-07-01 02:13:00,70.2,64.1,29.85,NW,323,3.0,3.0,81,0.00,,,0.00,WeatherCatV1.15B25,2013-07-01 06:13:00,
2013-07-01 02:18:00,70.1,64.0,29.85,NNW,337,3.0,5.0,81,0.00,,,0.00,WeatherCatV1.15B25,2013-07-01 06:18:00,
2013-07-01 02:23:00,70.0,63.9,29.85,NNE,14,3.0,6.0,81,0.00,,,0.00,WeatherCatV1.15B25,2013-07-01 06:23:00,
2013-07-01 02:28:00,70.0,63.9,29.85,ENE,60,0.0,4.0,81,0.00,,,0.00,WeatherCatV1.15B25,2013-07-01 06:28:00,
2013-07-01 02:33:00,70.0,63.9,29.85,NNW,341,4.0,6.0,81,0.00,,,0.00,WeatherCatV1.15B25,2013-07-01 06:33:00,
2013-07-01 02:38:00,70.0,63.9,29.85,NE,51,6.0,6.0,81,0.00,,,0.00,WeatherCatV1.15B25,2013-07-01 06:38:00,
2013-07-01 02:43:00,70.0,64.2,29.84,North,9,4.0,4.0,82,0.00,,,0.00,WeatherCatV1.15B25,2013-07-01 06:43:00,
2013-07-01 02:48:00,69.9,64.1,29.84,North,355,4.0,4.0,82,0.00,,,0.00,WeatherCatV1.15B25,2013-07-01 06:48:00,
2013-07-01 02:53:00,69.9,64.1,29.84,NE,37,1.0,11.0,82,0.00,,,0.00,WeatherCatV1.15B25,2013-07-01 06:53:00,
2013-07-01 02:58:00,69.9,64.1,29.84,NNE,28,4.0,5.0,82,0.00,,,0.00,WeatherCatV1.15B25,2013-07-01 06:58:00,
2013-07-01 03:03:00,69.9,64.1,29.84,North,10,2.0,6.0,82,0.00,,,0.00,WeatherCatV1.15B25,2013-07-01 07:03:00,
2013-07-01 03:08:00,69.9,64.5,29.84,North,355,2.0,4.0,83,0.00,,,0.00,WeatherCatV1.15B25,2013-07-01 07:08:00,
2013-07-01 03:13:00,69.8,64.4,29.84,NNW,344,0.0,5.0,83,0.00,,,0.00,WeatherCatV1.15B25,2013-07-01 07:13:00,
2013-07-01 03:18:00,69.8,64.4,29.84,NE,51,2.0,7.0,83,0.00,,,0.00,WeatherCatV1.15B25,2013-07-01 07:18:00,
2013-07-01 03:23:00,69.8,64.4,29.84,NE,55,1.0,7.0,83,0.00,,,0.00,WeatherCatV1.15B25,2013-07-01 07:23:00,
2013-07-01 03:28:00,69.8,64.7,29.83,NNE,29,3.0,7.0,84,0.00,,,0.00,WeatherCatV1.15B25,2013-07-01 07:28:00,
2013-07-01 03:33:00,69.7,64.6,29.84,NE,48,1.0,3.0,84,0.00,,,0.00,WeatherCatV1.15B25,2013-07-01 07:33:00,
2013-07-01 03:38:00,69.7,64.6,29.84,NNE,25,1.0,6.0,84,0.00,,,0.00,WeatherCatV1.15B25,2013-07-01 07:38:00,
2013-07-01 03:44:00,69.7,64.6,29.84,North,5,1.0,11.0,84,0.00,,,0.00,WeatherCatV1.15B25,2013-07-01 07:44:00,
2013-07-01 03:49:00,69.7,64.6,29.84,NE,51,2.0,9.0,84,0.00,,,0.00,WeatherCatV1.15B25,2013-07-01 07:49:00,
2013-07-01 03:54:00,69.6,64.5,29.83,NNE,24,1.0,6.0,84,0.00,,,0.00,WeatherCatV1.15B25,2013-07-01 07:54:00,
2013-07-01 03:59:00,69.6,64.5,29.84,North,350,3.0,4.0,84,0.00,,,0.00,WeatherCatV1.15B25,2013-07-01 07:59:00,
2013-07-01 04:04:00,69.5,64.4,29.84,NNE,19,0.0,7.0,84,0.00,,,0.00,WeatherCatV1.15B25,2013-07-01 08:04:00,
2013-07-01 04:09:00,69.6,64.5,29.84,North,355,1.0,5.0,84,0.00,,,0.00,WeatherCatV1.15B25,2013-07-01 08:09:00,
2013-07-01 04:14:00,69.6,64.5,29.84,NNW,348,2.0,4.0,84,0.00,,,0.00,WeatherCatV1.15B25,2013-07-01 08:14:00,
2013-07-01 04:19:00,69.6,64.5,29.84,NNW,341,6.0,6.0,84,0.00,,,0.00,WeatherCatV1.15B25,2013-07-01 08:19:00,
2013-07-01 04:24:00,69.6,64.5,29.84,NNW,337,4.0,6.0,84,0.00,,,0.00,WeatherCatV1.15B25,2013-07-01 08:24:00,
2013-07-01 04:29:00,69.6,64.2,29.84,NE,49,3.0,6.0,83,0.00,,,0.00,WeatherCatV1.15B25,2013-07-01 08:29:00,
2013-07-01 04:34:00,69.5,64.1,29.84,NNE,21,1.0,11.0,83,0.00,,,0.00,WeatherCatV1.15B25,2013-07-01 08:34:00,
2013-07-01 04:39:00,69.4,64.0,29.84,NNE,16,4.0,8.0,83,0.00,,,0.00,WeatherCatV1.15B25,2013-07-01 08:39:00,
2013-07-01 04:44:00,69.4,64.0,29.84,NE,36,1.0,5.0,83,0.00,,,0.00,WeatherCatV1.15B25,2013-07-01 08:44:00,
2013-07-01 04:49:00,69.3,64.2,29.84,North,9,2.0,7.0,84,0.00,,,0.00,WeatherCatV1.15B25,2013-07-01 08:49:00,
2013-07-01 04:54:00,69.3,64.2,29.85,North,355,3.0,11.0,84,0.00,,,0.00,WeatherCatV1.15B25,2013-07-01 08:54:00,
2013-07-01 04:59:00,69.2,64.2,29.85,NNW,340,1.0,7.0,84,0.00,,,0.00,WeatherCatV1.15B25,2013-07-01 08:59:00,
2013-07-01 05:04:00,69.1,64.1,29.85,ESE,102,2.0,2.0,84,0.00,,,0.00,WeatherCatV1.15B25,2013-07-01 09:04:00,
2013-07-01 05:09:00,69.1,64.1,29.85,North,355,6.0,8.0,84,0.00,,,0.00,WeatherCatV1.15B25,2013-07-01 09:09:00,
2013-07-01 05:14:00,69.1,64.1,29.85,NNW,346,9.0,9.0,84,0.00,,,0.00,WeatherCatV1.15B25,2013-07-01 09:14:00,
2013-07-01 05:19:00,69.1,64.1,29.85,NE,43,2.0,6.0,84,0.00,,,0.00,WeatherCatV1.15B25,2013-07-01 09:19:00,
2013-07-01 05:24:00,69.1,64.1,29.85,NNW,334,6.0,7.0,84,0.00,,,0.00,WeatherCatV1.15B25,2013-07-01 09:24:00,
2013-07-01 05:29:00,69.1,64.1,29.86,NNE,14,1.0,10.0,84,0.00,,,0.00,WeatherCatV1.15B25,2013-07-01 09:29:00,
2013-07-01 05:34:00,69.1,64.1,29.86,North,5,5.0,5.0,84,0.00,,,0.00,WeatherCatV1.15B25,2013-07-01 09:34:00,
2013-07-01 05:40:00,69.1,64.1,29.86,NE,38,1.0,5.0,84,0.00,,,0.00,WeatherCatV1.15B25,2013-07-01 09:40:00,
2013-07-01 05:45:00,69.1,64.1,29.86,North,355,4.0,8.0,84,0.00,,,0.00,WeatherCatV1.15B25,2013-07-01 09:45:00,
2013-07-01 05:50:00,69.1,64.4,29.86,NNE,26,4.0,7.0,85,0.00,,,0.00,WeatherCatV1.15B25,2013-07-01 09:50:00,
2013-07-01 05:55:00,69.1,64.1,29.86,NE,48,4.0,12.0,84,0.00,,,0.00,WeatherCatV1.15B25,2013-07-01 09:55:00,
2013-07-01 06:00:00,69.1,64.1,29.86,NE,56,2.0,8.0,84,0.00,,,0.00,WeatherCatV1.15B25,2013-07-01 10:00:00,
2013-07-01 06:05:00,69.1,64.1,29.86,North,355,3.0,4.0,84,0.00,,,0.00,WeatherCatV1.15B25,2013-07-01 10:05:00,
2013-07-01 06:10:00,69.1,64.1,29.87,NNW,344,5.0,7.0,84,0.00,,,0.00,WeatherCatV1.15B25,2013-07-01 10:10:00,
2013-07-01 06:15:00,69.1,64.4,29.86,North,0,2.0,9.0,85,0.00,,,0.00,WeatherCatV1.15B25,2013-07-01 10:15:00,
2013-07-01 06:20:00,69.1,64.4,29.86,NE,46,4.0,7.0,85,0.00,,,0.00,WeatherCatV1.15B25,2013-07-01 10:20:00,
2013-07-01 06:25:00,69.1,64.4,29.86,ENE,59,2.0,3.0,85,0.00,,,0.00,WeatherCatV1.15B25,2013-07-01 10:25:00,
2013-07-01 06:30:00,69.2,64.5,29.86,NNE,19,4.0,9.0,85,0.00,,,0.00,WeatherCatV1.15B25,2013-07-01 10:30:00,
2013-07-01 06:35:00,69.2,64.5,29.86,ENE,67,2.0,9.0,85,0.00,,,0.00,WeatherCatV1.15B25,2013-07-01 10:35:00,
2013-07-01 06:40:00,69.2,64.5,29.86,NNE,16,10.0,11.0,85,0.00,,,0.00,WeatherCatV1.15B25,2013-07-01 10:40:00,
2013-07-01 06:45:00,69.2,64.8,29.86,NW,315,3.0,10.0,86,0.00,,,0.00,WeatherCatV1.15B25,2013-07-01 10:45:00,
2013-07-01 06:50:00,69.2,64.8,29.86,NNE,14,5.0,13.0,86,0.00,,,0.00,WeatherCatV1.15B25,2013-07-01 10:50:00,
2013-07-01 06:55:00,69.3,64.9,29.87,NE,56,1.0,4.0,86,0.00,,,0.00,WeatherCatV1.15B25,2013-07-01 10:55:00,
2013-07-01 07:00:00,69.2,64.5,29.87,NNE,17,5.0,10.0,85,0.00,,,0.00,WeatherCatV1.15B25,2013-07-01 11:00:00,
2013-07-01 07:05:00,69.2,64.5,29.87,ENE,78,1.0,5.0,85,0.00,,,0.00,WeatherCatV1.15B25,2013-07-01 11:05:00,
2013-07-01 07:10:00,69.2,64.5,29.87,NE,37,2.0,5.0,85,0.00,,,0.00,WeatherCatV1.15B25,2013-07-01 11:10:00,
2013-07-01 07:15:00,69.2,64.5,29.87,NNW,344,7.0,9.0,85,0.00,,,0.00,WeatherCatV1.15B25,2013-07-01 11:15:00,
2013-07-01 07:20:00,69.2,64.5,29.88,NNW,340,5.0,10.0,85,0.00,,,0.00,WeatherCatV1.15B25,2013-07-01 11:20:00,
2013-07-01 07:25:00,69.2,64.5,29.88,NNE,28,1.0,7.0,85,0.00,,,0.00,WeatherCatV1.15B25,2013-07-01 11:25:00,
2013-07-01 07:30:00,69.1,64.4,29.88,North,349,9.0,9.0,85,0.00,,,0.00,WeatherCatV1.15B25,2013-07-01 11:30:00,
2013-07-01 07:35:00,69.1,64.4,29.88,North,5,1.0,13.0,85,0.00,,,0.00,WeatherCatV1.15B25,2013-07-01 11:35:00,
2013-07-01 07:40:00,69.1,64.4,29.88,North,0,2.0,10.0,85,0.00,,,0.00,WeatherCatV1.15B25,2013-07-01 11:40:00,
2013-07-01 07:45:00,69.1,64.4,29.88,NE,52,1.0,5.0,85,0.00,,,0.00,WeatherCatV1.15B25,2013-07-01 11:45:00,
2013-07-01 07:50:00,69.1,64.1,29.87,ENE,59,5.0,10.0,84,0.00,,,0.00,WeatherCatV1.15B25,2013-07-01 11:50:00,
2013-07-01 07:55:00,69.2,64.2,29.87,NNW,346,4.0,10.0,84,0.00,,,0.00,WeatherCatV1.15B25,2013-07-01 11:55:00,
2013-07-01 08:00:00,69.2,64.2,29.87,ENE,67,2.0,10.0,84,0.00,,,0.00,WeatherCatV1.15B25,2013-07-01 12:00:00,
2013-07-01 08:05:00,69.2,64.2,29.88,NE,42,1.0,14.0,84,0.00,,,0.00,WeatherCatV1.15B25,2013-07-01 12:05:00,
2013-07-01 08:10:00,69.3,64.2,29.88,NNW,327,4.0,5.0,84,0.00,,,0.00,WeatherCatV1.15B25,2013-07-01 12:10:00,
2013-07-01 08:15:00,69.3,64.2,29.88,NW,314,6.0,11.0,84,0.00,,,0.00,WeatherCatV1.15B25,2013-07-01 12:15:00,
2013-07-01 08:20:00,69.3,64.2,29.88,ENE,57,0.0,5.0,84,0.00,,,0.00,WeatherCatV1.15B25,2013-07-01 12:20:00,
2013-07-01 08:25:00,69.4,64.3,29.88,East,97,3.0,9.0,84,0.00,,,0.00,WeatherCatV1.15B25,2013-07-01 12:25:00,
2013-07-01 08:30:00,69.4,64.3,29.88,NNW,331,3.0,9.0,84,0.00,,,0.00,WeatherCatV1.15B25,2013-07-01 12:30:00,
2013-07-01 08:35:00,69.4,64.3,29.88,North,355,4.0,4.0,84,0.00,,,0.00,WeatherCatV1.15B25,2013-07-01 12:35:00,
2013-07-01 08:40:00,69.5,64.8,29.88,NE,36,4.0,6.0,85,0.00,,,0.00,WeatherCatV1.15B25,2013-07-01 12:40:00,
2013-07-01 08:45:00,69.5,64.8,29.88,NNE,26,2.0,11.0,85,0.00,,,0.00,WeatherCatV1.15B25,2013-07-01 12:45:00,
2013-07-01 08:50:00,69.5,64.8,29.88,North,0,5.0,9.0,85,0.00,,,0.00,WeatherCatV1.15B25,2013-07-01 12:50:00,
2013-07-01 08:55:00,69.5,64.8,29.89,NNE,21,4.0,7.0,85,0.00,,,0.00,WeatherCatV1.15B25,2013-07-01 12:55:00,
2013-07-01 09:00:00,69.4,64.7,29.89,NNW,329,5.0,9.0,85,0.00,,,0.00,WeatherCatV1.15B25,2013-07-01 13:00:00,
2013-07-01 09:05:00,69.4,64.7,29.89,East,80,2.0,5.0,85,0.00,,,0.00,WeatherCatV1.15B25,2013-07-01 13:05:00,
2013-07-01 09:10:00,69.4,64.7,29.89,NNW,346,1.0,3.0,85,0.00,,,0.00,WeatherCatV1.15B25,2013-07-01 13:10:00,
2013-07-01 09:15:00,69.4,64.7,29.89,NNE,13,6.0,7.0,85,0.00,,,0.00,WeatherCatV1.15B25,2013-07-01 13:15:00,
2013-07-01 09:20:00,69.5,64.8,29.89,WNW,302,5.0,7.0,85,0.00,,,0.00,WeatherCatV1.15B25,2013-07-01 13:20:00,
2013-07-01 09:25:00,69.5,64.8,29.89,North,0,3.0,7.0,85,0.00,,,0.00,WeatherCatV1.15B25,2013-07-01 13:25:00,
2013-07-01 09:30:00,69.3,64.2,29.89,NW,312,6.0,12.0,84,0.00,,,0.00,WeatherCatV1.15B25,2013-07-01 13:30:00,
2013-07-01 09:35:00,69.3,64.6,29.89,North,355,2.0,4.0,85,0.00,,,0.00,WeatherCatV1.15B25,2013-07-01 13:35:00,
2013-07-01 09:40:00,69.4,64.7,29.89,NE,44,2.0,6.0,85,0.00,,,0.00,WeatherCatV1.15B25,2013-07-01 13:40:00,
2013-07-01 09:45:00,69.4,64.7,29.90,North,350,3.0,4.0,85,0.00,,,0.00,WeatherCatV1.15B25,2013-07-01 13:45:00,
2013-07-01 09:50:00,69.5,64.8,29.89,North,355,3.0,11.0,85,0.00,,,0.00,WeatherCatV1.15B25,2013-07-01 13:50:00,
2013-07-01 09:55:00,69.4,64.7,29.90,NNE,17,1.0,5.0,85,0.00,,,0.00,WeatherCatV1.15B25,2013-07-01 13:55:00,
2013-07-01 10:00:00,69.4,64.7,29.89,ENE,78,1.0,7.0,85,0.00,,,0.00,WeatherCatV1.15B25,2013-07-01 14:00:00,
2013-07-01 10:05:00,69.4,65.0,29.89,NE,49,0.0,0.0,86,0.00,,,0.00,WeatherCatV1.15B25,2013-07-01 14:05:00,
2013-07-01 10:10:00,69.6,64.9,29.89,NNE,14,5.0,5.0,85,0.00,,,0.00,WeatherCatV1.15B25,2013-07-01 14:10:00,
2013-07-01 10:16:00,69.6,64.9,29.89,NW,325,4.0,6.0,85,0.00,,,0.00,WeatherCatV1.15B25,2013-07-01 14:16:00,
2013-07-01 10:21:00,69.7,65.0,29.89,NNW,334,4.0,6.0,85,0.00,,,0.00,WeatherCatV1.15B25,2013-07-01 14:21:00,
2013-07-01 10:26:00,69.6,64.5,29.89,North,0,2.0,9.0,84,0.00,,,0.00,WeatherCatV1.15B25,2013-07-01 14:26:00,
2013-07-01 10:31:00,69.6,64.5,29.89,North,0,9.0,10.0,84,0.00,,,0.00,WeatherCatV1.15B25,2013-07-01 14:31:00,
2013-07-01 10:37:00,69.5,64.4,29.89,North,11,4.0,10.0,84,0.00,,,0.00,WeatherCatV1.15B25,2013-07-01 14:37:00,
2013-07-01 10:42:00,69.5,64.4,29.89,North,355,0.0,3.0,84,0.00,,,0.00,WeatherCatV1.15B25,2013-07-01 14:42:00,
2013-07-01 10:47:00,69.5,64.4,29.90,ENE,74,2.0,9.0,84,0.00,,,0.00,WeatherCatV1.15B25,2013-07-01 14:47:00,
2013-07-01 10:52:00,69.4,64.7,29.90,North,5,3.0,8.0,85,0.00,,,0.00,WeatherCatV1.15B25,2013-07-01 14:52:00,
2013-07-01 10:57:00,69.2,64.5,29.90,NNE,12,0.0,13.0,85,0.00,,,0.00,WeatherCatV1.15B25,2013-07-01 14:57:00,
2013-07-01 11:02:00,69.3,64.6,29.90,NNW,338,4.0,9.0,85,0.00,,,0.00,WeatherCatV1.15B25,2013-07-01 15:02:00,
2013-07-01 11:08:00,69.2,64.5,29.90,NNE,24,2.0,7.0,85,0.00,,,0.00,WeatherCatV1.15B25,2013-07-01 15:08:00,
2013-07-01 11:13:00,69.1,64.4,29.90,NNE,17,2.0,6.0,85,0.00,,,0.00,WeatherCatV1.15B25,2013-07-01 15:13:00,
2013-07-01 11:18:00,69.0,64.3,29.90,North,5,4.0,6.0,85,0.00,,,0.00,WeatherCatV1.15B25,2013-07-01 15:18:00,
2013-07-01 11:23:00,68.9,64.2,29.90,NE,51,3.0,7.0,85,0.00,,,0.00,WeatherCatV1.15B25,2013-07-01 15:23:00,
2013-07-01 11:28:00,68.8,64.4,29.90,ENE,76,5.0,8.0,86,0.00,,,0.00,WeatherCatV1.15B25,2013-07-01 15:28:00,
2013-07-01 11:33:00,68.7,64.3,29.90,NNE,33,2.0,2.0,86,0.00,,,0.00,WeatherCatV1.15B25,2013-07-01 15:33:00,
2013-07-01 11:38:00,68.6,64.2,29.90,ENE,72,0.0,12.0,86,0.00,,,0.00,WeatherCatV1.15B25,2013-07-01 15:38:00,
2013-07-01 11:43:00,68.6,64.2,29.91,NNE,33,1.0,4.0,86,0.00,,,0.00,WeatherCatV1.15B25,2013-07-01 15:43:00,
2013-07-01 11:48:00,68.6,64.2,29.90,North,0,2.0,10.0,86,0.00,,,0.00,WeatherCatV1.15B25,2013-07-01 15:48:00,
2013-07-01 11:53:00,68.6,64.2,29.90,NNE,29,6.0,10.0,86,0.00,,,0.00,WeatherCatV1.15B25,2013-07-01 15:53:00,
2013-07-01 11:58:00,68.6,64.2,29.90,NNW,339,6.0,9.0,86,0.00,,,0.00,WeatherCatV1.15B25,2013-07-01 15:58:00,
2013-07-01 12:03:00,68.6,64.2,29.90,ENE,74,1.0,12.0,86,0.00,,,0.00,WeatherCatV1.15B25,2013-07-01 16:03:00,
2013-07-01 12:08:00,68.6,64.2,29.90,ENE,71,5.0,14.0,86,0.00,,,0.00,WeatherCatV1.15B25,2013-07-01 16:08:00,
2013-07-01 12:13:00,68.6,64.2,29.90,NNW,337,1.0,7.0,86,0.00,,,0.00,WeatherCatV1.15B25,2013-07-01 16:13:00,
2013-07-01 12:18:00,68.6,64.2,29.91,North,5,6.0,9.0,86,0.00,,,0.00,WeatherCatV1.15B25,2013-07-01 16:18:00,
2013-07-01 12:23:00,68.6,64.6,29.91,NNE,30,4.0,5.0,87,0.00,,,0.00,WeatherCatV1.15B25,2013-07-01 16:23:00,
2013-07-01 12:28:00,68.5,64.5,29.91,NNW,337,0.0,7.0,87,0.00,,,0.00,WeatherCatV1.15B25,2013-07-01 16:28:00,
2013-07-01 12:33:00,68.3,64.3,29.92,NNE,28,0.0,6.0,87,0.00,,,0.00,WeatherCatV1.15B25,2013-07-01 16:33:00,
2013-07-01 12:38:00,68.3,64.6,29.91,North,355,2.0,12.0,88,0.00,,,0.00,WeatherCatV1.15B25,2013-07-01 16:38:00,
2013-07-01 12:43:00,68.1,64.4,29.91,NW,313,9.0,9.0,88,0.00,,,0.01,WeatherCatV1.15B25,2013-07-01 16:43:00,
2013-07-01 12:48:00,68.0,64.3,29.91,NNE,28,1.0,6.0,88,0.00,,,0.01,WeatherCatV1.15B25,2013-07-01 16:48:00,
2013-07-01 12:53:00,67.9,64.2,29.91,NE,38,2.0,6.0,88,0.00,,,0.01,WeatherCatV1.15B25,2013-07-01 16:53:00,
2013-07-01 12:58:00,67.7,64.3,29.91,NW,324,5.0,10.0,89,0.00,,,0.01,WeatherCatV1.15B25,2013-07-01 16:58:00,
2013-07-01 13:03:00,67.7,64.3,29.91,North,5,3.0,7.0,89,0.00,,,0.01,WeatherCatV1.15B25,2013-07-01 17:03:00,
2013-07-01 13:08:00,67.6,64.2,29.91,ESE,102,0.0,4.0,89,0.00,,,0.02,WeatherCatV1.15B25,2013-07-01 17:08:00,
2013-07-01 13:13:00,67.5,64.1,29.92,NNE,19,3.0,12.0,89,0.00,,,0.02,WeatherCatV1.15B25,2013-07-01 17:13:00,
2013-07-01 13:18:00,67.5,64.1,29.92,NNE,19,2.0,5.0,89,0.00,,,0.02,WeatherCatV1.15B25,2013-07-01 17:18:00,
2013-07-01 13:23:00,67.5,64.1,29.92,NNE,25,4.0,9.0,89,0.00,,,0.02,WeatherCatV1.15B25,2013-07-01 17:23:00,
2013-07-01 13:28:00,67.5,64.1,29.92,ENE,64,0.0,6.0,89,0.00,,,0.02,WeatherCatV1.15B25,2013-07-01 17:28:00,
2013-07-01 13:33:00,67.5,64.5,29.92,NNW,346,3.0,7.0,90,0.00,,,0.02,WeatherCatV1.15B25,2013-07-01 17:33:00,
2013-07-01 13:38:00,67.5,64.5,29.92,NNW,338,5.0,9.0,90,0.00,,,0.02,WeatherCatV1.15B25,2013-07-01 17:38:00,
2013-07-01 13:43:00,67.4,64.4,29.92,North,355,3.0,4.0,90,0.00,,,0.02,WeatherCatV1.15B25,2013-07-01 17:43:00,
2013-07-01 13:48:00,67.3,64.3,29.92,NNW,344,3.0,5.0,90,0.00,,,0.02,WeatherCatV1.15B25,2013-07-01 17:48:00,
2013-07-01 13:53:00,67.3,64.3,29.92,NE,43,3.0,7.0,90,0.00,,,0.02,WeatherCatV1.15B25,2013-07-01 17:53:00,
2013-07-01 13:58:00,67.4,64.4,29.92,NNW,337,3.0,4.0,90,0.00,,,0.02,WeatherCatV1.15B25,2013-07-01 17:58:00,
2013-07-01 14:04:00,67.4,64.4,29.92,NE,40,7.0,9.0,90,0.00,,,0.02,WeatherCatV1.15B25,2013-07-01 18:04:00,
2013-07-01 14:09:00,67.3,64.3,29.92,NNE,23,4.0,5.0,90,0.00,,,0.02,WeatherCatV1.15B25,2013-07-01 18:09:00,
2013-07-01 14:14:00,67.3,64.3,29.93,SE,124,4.0,10.0,90,0.00,,,0.02,WeatherCatV1.15B25,2013-07-01 18:14:00,
2013-07-01 14:19:00,67.3,64.3,29.93,NNE,26,2.0,10.0,90,0.00,,,0.02,WeatherCatV1.15B25,2013-07-01 18:19:00,
2013-07-01 14:24:00,67.4,64.4,29.93,NNW,344,4.0,6.0,90,0.00,,,0.02,WeatherCatV1.15B25,2013-07-01 18:24:00,
2013-07-01 14:28:00,67.5,64.5,29.92,ENE,61,1.0,6.0,90,0.00,,,0.02,WeatherCatV1.15B25,2013-07-01 18:28:00,
2013-07-01 14:33:00,67.5,64.1,29.93,NNE,19,4.0,4.0,89,0.00,,,0.02,WeatherCatV1.15B25,2013-07-01 18:33:00,
2013-07-01 14:38:00,67.5,64.1,29.93,North,350,4.0,9.0,89,0.00,,,0.02,WeatherCatV1.15B25,2013-07-01 18:38:00,
2013-07-01 14:43:00,67.6,64.2,29.92,ENE,57,2.0,7.0,89,0.00,,,0.02,WeatherCatV1.15B25,2013-07-01 18:43:00,
2013-07-01 14:48:00,67.7,64.3,29.92,NNE,17,4.0,8.0,89,0.00,,,0.02,WeatherCatV1.15B25,2013-07-01 18:48:00,
2013-07-01 14:53:00,67.8,64.4,29.92,North,5,3.0,9.0,89,0.00,,,0.02,WeatherCatV1.15B25,2013-07-01 18:53:00,
2013-07-01 14:58:00,67.8,64.4,29.92,NE,55,1.0,7.0,89,0.00,,,0.02,WeatherCatV1.15B25,2013-07-01 18:58:00,
2013-07-01 15:03:00,67.9,64.5,29.92,NE,44,0.0,3.0,89,0.00,,,0.02,WeatherCatV1.15B25,2013-07-01 19:03:00,
2013-07-01 15:08:00,68.0,64.6,29.92,NNW,338,9.0,9.0,89,0.00,,,0.02,WeatherCatV1.15B25,2013-07-01 19:08:00,
2013-07-01 15:13:00,67.9,64.5,29.92,NE,42,4.0,4.0,89,0.00,,,0.02,WeatherCatV1.15B25,2013-07-01 19:13:00,
2013-07-01 15:18:00,67.8,64.1,29.92,NE,34,8.0,10.0,88,0.00,,,0.02,WeatherCatV1.15B25,2013-07-01 19:18:00,
2013-07-01 15:23:00,67.8,64.1,29.93,North,350,1.0,9.0,88,0.00,,,0.02,WeatherCatV1.15B25,2013-07-01 19:23:00,
2013-07-01 15:29:00,67.8,64.1,29.93,NE,35,4.0,6.0,88,0.00,,,0.02,WeatherCatV1.15B25,2013-07-01 19:29:00,
2013-07-01 15:35:00,67.8,64.1,29.92,NNW,338,1.0,12.0,88,0.00,,,0.02,WeatherCatV1.15B25,2013-07-01 19:35:00,
2013-07-01 15:40:00,67.9,64.2,29.93,NNE,20,5.0,5.0,88,0.00,,,0.02,WeatherCatV1.15B25,2013-07-01 19:40:00,
2013-07-01 15:45:00,68.2,64.5,29.93,North,0,0.0,2.0,88,0.00,,,0.02,WeatherCatV1.15B25,2013-07-01 19:45:00,
2013-07-01 15:50:00,68.5,64.5,29.93,North,350,5.0,5.0,87,0.00,,,0.02,WeatherCatV1.15B25,2013-07-01 19:50:00,
2013-07-01 15:55:00,68.7,64.7,29.93,NNW,334,3.0,7.0,87,0.00,,,0.02,WeatherCatV1.15B25,2013-07-01 19:55:00,
2013-07-01 16:00:00,68.6,64.2,29.94,NNE,21,10.0,14.0,86,0.00,,,0.02,WeatherCatV1.15B25,2013-07-01 20:00:00,
2013-07-01 16:05:00,68.4,64.0,29.93,North,5,2.0,12.0,86,0.00,,,0.02,WeatherCatV1.15B25,2013-07-01 20:05:00,
2013-07-01 16:10:00,68.4,64.0,29.94,NNE,30,1.0,12.0,86,0.00,,,0.02,WeatherCatV1.15B25,2013-07-01 20:10:00,
2013-07-01 16:15:00,68.4,63.7,29.94,NNW,344,5.0,11.0,85,0.00,,,0.02,WeatherCatV1.15B25,2013-07-01 20:15:00,
2013-07-01 16:20:00,68.4,63.7,29.94,NNW,348,5.0,9.0,85,0.00,,,0.02,WeatherCatV1.15B25,2013-07-01 20:20:00,
2013-07-01 16:25:00,68.3,63.6,29.94,NNE,15,2.0,7.0,85,0.00,,,0.02,WeatherCatV1.15B25,2013-07-01 20:25:00,
2013-07-01 16:30:00,68.3,63.6,29.94,North,5,4.0,5.0,85,0.00,,,0.02,WeatherCatV1.15B25,2013-07-01 20:30:00,
2013-07-01 16:35:00,68.2,63.5,29.94,North,355,3.0,13.0,85,0.00,,,0.02,WeatherCatV1.15B25,2013-07-01 20:35:00,
2013-07-01 16:40:00,68.2,63.5,29.94,North,355,7.0,7.0,85,0.00,,,0.02,WeatherCatV1.15B25,2013-07-01 20:40:00,
2013-07-01 16:45:00,68.1,63.7,29.94,NNW,341,4.0,5.0,86,0.00,,,0.02,WeatherCatV1.15B25,2013-07-01 20:45:00,
2013-07-01 16:50:00,68.0,63.6,29.94,North,11,1.0,12.0,86,0.00,,,0.02,WeatherCatV1.15B25,2013-07-01 20:50:00,
2013-07-01 16:55:00,68.1,63.7,29.93,NE,45,3.0,11.0,86,0.00,,,0.02,WeatherCatV1.15B25,2013-07-01 20:55:00,
2013-07-01 17:01:00,68.2,63.8,29.93,NNE,22,0.0,11.0,86,0.00,,,0.02,WeatherCatV1.15B25,2013-07-01 21:01:00,
2013-07-01 17:07:00,68.4,63.7,29.93,North,349,0.0,6.0,85,0.00,,,0.02,WeatherCatV1.15B25,2013-07-01 21:07:00,
2013-07-01 17:12:00,68.4,63.7,29.94,ESE,106,2.0,9.0,85,0.00,,,0.02,WeatherCatV1.15B25,2013-07-01 21:12:00,
2013-07-01 17:17:00,68.4,63.7,29.94,North,9,6.0,10.0,85,0.00,,,0.02,WeatherCatV1.15B25,2013-07-01 21:17:00,
2013-07-01 17:22:00,68.4,63.7,29.94,NNW,340,2.0,6.0,85,0.00,,,0.02,WeatherCatV1.15B25,2013-07-01 21:22:00,
2013-07-01 17:27:00,68.4,63.7,29.94,North,0,5.0,7.0,85,0.00,,,0.02,WeatherCatV1.15B25,2013-07-01 21:27:00,
2013-07-01 17:32:00,68.2,63.5,29.94,NNW,339,5.0,7.0,85,0.00,,,0.02,WeatherCatV1.15B25,2013-07-01 21:32:00,
2013-07-01 17:37:00,68.2,63.8,29.95,North,5,4.0,10.0,86,0.00,,,0.02,WeatherCatV1.15B25,2013-07-01 21:37:00,
2013-07-01 17:42:00,68.1,63.7,29.95,NW,326,4.0,9.0,86,0.00,,,0.02,WeatherCatV1.15B25,2013-07-01 21:42:00,
2013-07-01 17:47:00,67.9,63.5,29.95,North,10,5.0,12.0,86,0.00,,,0.02,WeatherCatV1.15B25,2013-07-01 21:47:00,
2013-07-01 17:52:00,67.8,63.5,29.95,NNW,347,2.0,12.0,86,0.00,,,0.02,WeatherCatV1.15B25,2013-07-01 21:52:00,
2013-07-01 17:58:00,67.9,63.2,29.94,North,349,0.0,9.0,85,0.00,,,0.02,WeatherCatV1.15B25,2013-07-01 21:58:00,
2013-07-01 18:03:00,67.9,63.2,29.94,ENE,69,3.0,12.0,85,0.00,,,0.02,WeatherCatV1.15B25,2013-07-01 22:03:00,
2013-07-01 18:08:00,68.0,63.3,29.94,NNE,13,5.0,9.0,85,0.00,,,0.02,WeatherCatV1.15B25,2013-07-01 22:08:00,
2013-07-01 18:13:00,68.0,63.3,29.94,North,355,0.0,3.0,85,0.00,,,0.02,WeatherCatV1.15B25,2013-07-01 22:13:00,
2013-07-01 18:18:00,67.8,63.5,29.94,WNW,296,4.0,5.0,86,0.00,,,0.02,WeatherCatV1.15B25,2013-07-01 22:18:00,
2013-07-01 18:23:00,67.8,63.5,29.94,ENE,77,5.0,6.0,86,0.00,,,0.02,WeatherCatV1.15B25,2013-07-01 22:23:00,
2013-07-01 18:28:00,67.7,63.4,29.94,NNE,23,3.0,6.0,86,0.00,,,0.02,WeatherCatV1.15B25,2013-07-01 22:28:00,
2013-07-01 18:33:00,67.6,63.3,29.95,NE,35,1.0,9.0,86,0.00,,,0.02,WeatherCatV1.15B25,2013-07-01 22:33:00,
2013-07-01 18:38:00,67.5,63.2,29.95,NNW,348,4.0,7.0,86,0.00,,,0.02,WeatherCatV1.15B25,2013-07-01 22:38:00,
2013-07-01 18:43:00,67.6,63.3,29.95,NNE,33,5.0,9.0,86,0.00,,,0.02,WeatherCatV1.15B25,2013-07-01 22:43:00,
2013-07-01 18:48:00,67.5,63.2,29.95,NNW,333,3.0,10.0,86,0.00,,,0.02,WeatherCatV1.15B25,2013-07-01 22:48:00,
2013-07-01 18:53:00,67.4,63.1,29.95,NNE,17,0.0,10.0,86,0.00,,,0.02,WeatherCatV1.15B25,2013-07-01 22:53:00,
2013-07-01 18:58:00,67.3,62.6,29.95,NNW,340,7.0,7.0,85,0.00,,,0.02,WeatherCatV1.15B25,2013-07-01 22:58:00,
2013-07-01 19:03:00,67.3,62.6,29.95,NW,323,4.0,6.0,85,0.00,,,0.02,WeatherCatV1.15B25,2013-07-01 23:03:00,
2013-07-01 19:08:00,67.3,62.6,29.95,North,9,6.0,7.0,85,0.00,,,0.02,WeatherCatV1.15B25,2013-07-01 23:08:00,
2013-07-01 19:13:00,67.3,62.6,29.95,North,0,0.0,6.0,85,0.00,,,0.02,WeatherCatV1.15B25,2013-07-01 23:13:00,
2013-07-01 19:18:00,67.4,62.7,29.95,NE,34,4.0,10.0,85,0.00,,,0.02,WeatherCatV1.15B25,2013-07-01 23:18:00,
2013-07-01 19:23:00,67.3,62.6,29.95,North,0,3.0,10.0,85,0.00,,,0.02,WeatherCatV1.15B25,2013-07-01 23:23:00,
2013-07-01 19:28:00,67.2,62.5,29.96,North,350,5.0,11.0,85,0.00,,,0.02,WeatherCatV1.15B25,2013-07-01 23:28:00,
2013-07-01 19:33:00,67.1,62.4,29.96,NNW,336,4.0,11.0,85,0.00,,,0.02,WeatherCatV1.15B25,2013-07-01 23:33:00,
2013-07-01 19:38:00,67.0,62.3,29.96,North,0,0.0,5.0,85,0.00,,,0.02,WeatherCatV1.15B25,2013-07-01 23:38:00,
2013-07-01 19:43:00,66.9,62.2,29.96,ENE,61,3.0,6.0,85,0.00,,,0.02,WeatherCatV1.15B25,2013-07-01 23:43:00,
2013-07-01 19:48:00,66.8,62.1,29.96,NNE,14,0.0,10.0,85,0.00,,,0.02,WeatherCatV1.15B25,2013-07-01 23:48:00,
2013-07-01 19:53:00,66.8,62.1,29.96,NW,321,10.0,11.0,85,0.00,,,0.02,WeatherCatV1.15B25,2013-07-01 23:53:00,
2013-07-01 19:58:00,66.8,62.1,29.96,North,355,0.0,4.0,85,0.00,,,0.02,WeatherCatV1.15B25,2013-07-01 23:58:00,
2013-07-01 20:03:00,66.8,62.1,29.96,NW,317,2.0,9.0,85,0.00,,,0.02,WeatherCatV1.15B25,2013-07-02 00:03:00,
2013-07-01 20:08:00,66.8,62.1,29.97,NNW,332,6.0,6.0,85,0.00,,,0.02,WeatherCatV1.15B25,2013-07-02 00:08:00,
2013-07-01 20:13:00,66.8,62.1,29.97,NW,326,4.0,13.0,85,0.00,,,0.02,WeatherCatV1.15B25,2013-07-02 00:13:00,
2013-07-01 20:18:00,66.9,62.2,29.97,NE,49,7.0,7.0,85,0.00,,,0.02,WeatherCatV1.15B25,2013-07-02 00:18:00,
2013-07-01 20:23:00,66.9,62.2,29.97,NNE,15,4.0,10.0,85,0.00,,,0.02,WeatherCatV1.15B25,2013-07-02 00:23:00,
2013-07-01 20:28:00,66.9,62.2,29.97,NNW,343,5.0,7.0,85,0.00,,,0.02,WeatherCatV1.15B25,2013-07-02 00:28:00,
2013-07-01 20:33:00,67.0,62.3,29.97,ENE,65,2.0,11.0,85,0.00,,,0.02,WeatherCatV1.15B25,2013-07-02 00:33:00,
2013-07-01 20:38:00,66.9,62.2,29.98,North,5,0.0,5.0,85,0.00,,,0.02,WeatherCatV1.15B25,2013-07-02 00:38:00,
2013-07-01 20:43:00,66.9,62.2,29.97,NE,34,2.0,3.0,85,0.00,,,0.02,WeatherCatV1.15B25,2013-07-02 00:43:00,
2013-07-01 20:48:00,66.8,62.1,29.97,NNW,344,4.0,7.0,85,0.00,,,0.02,WeatherCatV1.15B25,2013-07-02 00:48:00,
2013-07-01 20:53:00,66.8,62.1,29.97,NNE,32,0.0,9.0,85,0.00,,,0.02,WeatherCatV1.15B25,2013-07-02 00:53:00,
2013-07-01 20:58:00,66.8,62.1,29.97,North,0,0.0,10.0,85,0.00,,,0.02,WeatherCatV1.15B25,2013-07-02 00:58:00,
2013-07-01 21:03:00,66.8,62.1,29.97,ENE,67,1.0,5.0,85,0.00,,,0.02,WeatherCatV1.15B25,2013-07-02 01:03:00,
2013-07-01 21:08:00,66.8,62.1,29.97,North,5,12.0,12.0,85,0.00,,,0.02,WeatherCatV1.15B25,2013-07-02 01:08:00,
2013-07-01 21:13:00,66.8,62.1,29.97,NNW,331,5.0,5.0,85,0.00,,,0.02,WeatherCatV1.15B25,2013-07-02 01:13:00,
2013-07-01 21:18:00,66.8,62.1,29.97,NE,40,5.0,12.0,85,0.00,,,0.02,WeatherCatV1.15B25,2013-07-02 01:18:00,
2013-07-01 21:23:00,66.8,62.1,29.97,NNE,21,0.0,9.0,85,0.00,,,0.02,WeatherCatV1.15B25,2013-07-02 01:23:00,
2013-07-01 21:28:00,66.7,62.4,29.97,North,0,0.0,7.0,86,0.00,,,0.02,WeatherCatV1.15B25,2013-07-02 01:28:00,
2013-07-01 21:33:00,66.7,62.4,29.97,North,349,4.0,10.0,86,0.00,,,0.02,WeatherCatV1.15B25,2013-07-02 01:33:00,
2013-07-01 21:38:00,66.7,62.4,29.97,NNW,346,0.0,7.0,86,0.00,,,0.02,WeatherCatV1.15B25,2013-07-02 01:38:00,
2013-07-01 21:43:00,66.7,62.4,29.98,North,355,2.0,7.0,86,0.00,,,0.02,WeatherCatV1.15B25,2013-07-02 01:43:00,
2013-07-01 21:48:00,66.6,62.3,29.98,NNE,33,3.0,13.0,86,0.00,,,0.02,WeatherCatV1.15B25,2013-07-02 01:48:00,
2013-07-01 21:53:00,66.6,62.3,29.98,North,11,2.0,5.0,86,0.00,,,0.02,WeatherCatV1.15B25,2013-07-02 01:53:00,
2013-07-01 21:59:00,66.6,62.3,29.97,NNE,24,6.0,11.0,86,0.00,,,0.02,WeatherCatV1.15B25,2013-07-02 01:59:00,
2013-07-01 22:04:00,66.5,62.2,29.98,NW,326,0.0,8.0,86,0.00,,,0.02,WeatherCatV1.15B25,2013-07-02 02:04:00,
2013-07-01 22:09:00,66.5,62.5,29.98,NNW,344,3.0,9.0,87,0.00,,,0.02,WeatherCatV1.15B25,2013-07-02 02:09:00,
2013-07-01 22:14:00,66.5,62.8,29.99,NNE,22,4.0,13.0,88,0.00,,,0.02,WeatherCatV1.15B25,2013-07-02 02:14:00,
2013-07-01 22:19:00,66.5,62.5,29.99,NNW,344,3.0,7.0,87,0.00,,,0.02,WeatherCatV1.15B25,2013-07-02 02:19:00,
2013-07-01 22:24:00,66.5,62.8,29.99,NNE,28,0.0,7.0,88,0.00,,,0.02,WeatherCatV1.15B25,2013-07-02 02:24:00,
2013-07-01 22:29:00,66.5,62.5,29.99,North,355,0.0,0.0,87,0.00,,,0.02,WeatherCatV1.15B25,2013-07-02 02:29:00,
2013-07-01 22:34:00,66.4,62.4,29.99,North,0,4.0,7.0,87,0.00,,,0.02,WeatherCatV1.15B25,2013-07-02 02:34:00,
2013-07-01 22:39:00,66.4,62.4,29.99,NNE,23,13.0,14.0,87,0.00,,,0.02,WeatherCatV1.15B25,2013-07-02 02:39:00,
2013-07-01 22:44:00,66.4,62.4,29.99,North,349,1.0,4.0,87,0.00,,,0.02,WeatherCatV1.15B25,2013-07-02 02:44:00,
2013-07-01 22:49:00,66.3,62.3,29.99,NNW,338,4.0,11.0,87,0.00,,,0.02,WeatherCatV1.15B25,2013-07-02 02:49:00,
2013-07-01 22:54:00,66.4,62.4,29.99,NNE,21,1.0,8.0,87,0.00,,,0.02,WeatherCatV1.15B25,2013-07-02 02:54:00,
2013-07-01 22:59:00,66.3,62.3,29.99,NNW,336,0.0,6.0,87,0.00,,,0.02,WeatherCatV1.15B25,2013-07-02 02:59:00,
2013-07-01 23:04:00,66.3,62.0,29.99,SE,125,0.0,9.0,86,0.00,,,0.02,WeatherCatV1.15B25,2013-07-02 03:04:00,
2013-07-01 23:09:00,66.3,62.0,29.99,NNW,342,5.0,6.0,86,0.00,,,0.02,WeatherCatV1.15B25,2013-07-02 03:09:00,
2013-07-01 23:14:00,66.3,62.0,29.99,NNW,328,1.0,3.0,86,0.00,,,0.02,WeatherCatV1.15B25,2013-07-02 03:14:00,
2013-07-01 23:19:00,66.3,62.0,29.99,North,355,4.0,8.0,86,0.00,,,0.02,WeatherCatV1.15B25,2013-07-02 03:19:00,
2013-07-01 23:24:00,66.3,62.0,29.99,North,0,1.0,10.0,86,0.00,,,0.02,WeatherCatV1.15B25,2013-07-02 03:24:00,
2013-07-01 23:29:00,66.3,62.0,29.99,NE,48,3.0,9.0,86,0.00,,,0.02,WeatherCatV1.15B25,2013-07-02 03:29:00,
2013-07-01 23:34:00,66.3,62.0,29.98,NNE,25,0.0,10.0,86,0.00,,,0.02,WeatherCatV1.15B25,2013-07-02 03:34:00,
2013-07-01 23:40:00,66.3,62.0,29.98,NNE,14,5.0,9.0,86,0.00,,,0.02,WeatherCatV1.15B25,2013-07-02 03:40:00,
2013-07-01 23:45:00,66.2,61.9,29.98,North,5,4.0,6.0,86,0.00,,,0.02,WeatherCatV1.15B25,2013-07-02 03:45:00,
2013-07-01 23:50:00,66.2,61.9,29.98,North,11,5.0,6.0,86,0.00,,,0.02,WeatherCatV1.15B25,2013-07-02 03:50:00,
2013-07-01 23:55:00,66.1,61.8,29.98,North,0,1.0,11.0,86,0.00,,,0.02,WeatherCatV1.15B25,2013-07-02 03:55:00,